This is the latest recevied weather packets stored in our database for station/object KI6PPU. If no packets are shown the sender has not sent any weather packets the latest 10 day(s).
| Time | Temp. | Humidity | Pressure | Rain* | Wind** | Luminosity | Snow |
|---|---|---|---|---|---|---|---|
| 1777995521 | 10.56° C | 99% | 1017.4 hPa | 0 mm | - | 76 W/m² | - |
| 1777995218 | 10.56° C | 99% | 1017.4 hPa | 0 mm | - | 76 W/m² | - |
| 1777994915 | 10.56° C | 99% | 1017.4 hPa | 0 mm | - | 73 W/m² | - |
| 1777994612 | 10.56° C | 99% | 1017.3 hPa | 0 mm | - | 82 W/m² | - |
| 1777994306 | 11.11° C | 99% | 1017.2 hPa | 0 mm | - | 70 W/m² | - |
| 1777994003 | 10.56° C | 99% | 1017.3 hPa | 0 mm | - | 50 W/m² | - |
| 1777993700 | 10.56° C | 99% | 1017.1 hPa | 0 mm | - | 53 W/m² | - |
| 1777993397 | 10.56° C | 99% | 1017.2 hPa | 0 mm | - | 59 W/m² | - |
| 1777993091 | 10.56° C | 99% | 1017.1 hPa | 0 mm | - | 69 W/m² | - |
| 1777992790 | 10.56° C | 99% | 1017.1 hPa | 0 mm | - | 73 W/m² | - |
| 1777992487 | 10.56° C | 99% | 1017 hPa | 0 mm | - | 77 W/m² | - |
| 1777992186 | 10.56° C | 99% | 1017.1 hPa | 0 mm | - | 71 W/m² | - |
| 1777991882 | 10.56° C | 99% | 1016.9 hPa | 0 mm | - | 70 W/m² | - |
| 1777991580 | 10.56° C | 99% | 1016.9 hPa | 0 mm | - | 51 W/m² | - |
| 1777991277 | 10.56° C | 99% | 1016.8 hPa | 0 mm | - | 57 W/m² | - |
| 1777990974 | 10.56° C | 99% | 1016.8 hPa | 0 mm | - | 39 W/m² | - |
| 1777990671 | 10.56° C | 99% | 1016.9 hPa | 0 mm | - | 29 W/m² | - |
| 1777990369 | 10.56° C | 99% | 1016.7 hPa | 0 mm | - | 32 W/m² | - |
| 1777990064 | 10.56° C | 99% | 1016.7 hPa | 0 mm | - | 38 W/m² | - |
| 1777989761 | 10° C | 99% | 1016.7 hPa | 0 mm | - | 35 W/m² | - |
| 1777989458 | 10° C | 99% | 1016.4 hPa | 0 mm | - | 28 W/m² | - |
| 1777989154 | 10° C | 99% | 1016.6 hPa | 0 mm | - | 16 W/m² | - |
| 1777988850 | 10° C | 99% | 1016.6 hPa | 0 mm | - | 15 W/m² | - |
| 1777988548 | 10° C | 99% | 1016.8 hPa | 0 mm | - | 11 W/m² | - |
| 1777988244 | 10° C | 99% | 1016.5 hPa | 0 mm | - | 7 W/m² | - |
* Rain latest hour (hover to see other rain measurements)
** Current wind speed in m/s (hover to see current wind gust speed)